Dewpoint
25 24 23 24 27 42 51 49 49 54 57 57 56 53 55 53 55 55 53 54 55 57 60 63 63 64 65 65 65 64 63 65 67 64 66 65 66 66 65 67 69 67 63 63
23 23 24 25 30 29 32 33 47 54 55 54 54 55 55 53 54 56 55 54 55 57 59 62 63 64 64 64 64 63 63 65 66 64 66 66 67 68 66 68 69 64 59 65
21 23 21 24 26 31 33 40 49 48 55 56 54 52 53 55 56 58 57 56 56 57 58 60 62 63 64 64 64 63 65 64 67 66 69 68 68 68 67 68 68 68 67 67
18 18 17 18 20 26 28 47 49 51 49 47 52 46 52 54 54 54 55 57 57 58 59 60 61 63 63 64 65 65 66 65 67 68 66 66 65 64 65 66 67 67 69 67
12 10 12 14 16 31 43 51 52 49 46 46 46 42 46 51 50 52 56 57 59 58 59 60 61 63 64 65 65 66 66 66 67 68 66 65 65 64 65 66 67 65 68 68
16 17 15 13 25 33 50 48 47 48 46 39 44 43 42 46 46 50 56 57 59 60 59 60 62 64 65 65 65 66 66 66 67 68 67 65 64 64 66 65 65 66 66 68
15 11 11 19 43 48 47 44 37 37 39 37 46 43 42 47 48 49 52 58 58 61 61 61 62 64 64 66 66 66 66 65 66 67 68 68 66 65 66 66 66 66 65 67
14 6 9 26 44 43 41 37 35 34 33 35 46 41 44 52 55 53 52 58 58 60 62 61 62 64 64 66 66 66 66 65 66 68 67 68 68 67 67 67 66 66 66 65
18 17 22 26 37 40 36 34 38 36 34 30 42 47 50 53 55 53 53 57 57 58 61 62 63 64 65 66 67 66 66 66 66 68 68 68 68 68 68 67 68 67 67 68
18 19 24 22 27 33 35 31 31 33 26 24 37 40 34 44 52 56 55 56 56 56 59 61 63 63 65 66 67 67 67 66 67 67 69 68 68 69 69 69 69 69 69 69
22 22 20 24 23 20 19 20 18 23 22 19 34 38 50 51 51 55 54 55 56 55 57 59 61 63 64 66 67 68 68 67 67 68 69 69 69 70 69 69 69 69 69 69
26 21 20 23 29 29 28 24 16 13 14 22 22 34 52 53 53 53 53 53 56 58 56 57 60 62 64 65 67 68 68 68 68 68 69 69 70 70 70 70 69 70 69 69
24 27 21 24 27 29 31 31 28 17 16 14 11 27 51 53 54 56 55 56 58 59 58 57 59 62 62 64 66 68 69 68 69 69 69 69 69 69 69 69 70 70 70 69
31 29 26 25 30 33 28 31 28 23 21 26 26 43 48 52 51 55 56 59 60 59 58 58 60 62 63 63 65 67 68 68 68 68 69 70 70 70 69 70 70 70 70 69
23 23 29 29 32 35 39 41 45 37 38 25 41 44 51 50 52 52 54 59 61 60 60 60 61 62 63 64 65 66 66 67 67 66 66 65 67 69 70 70 70 70 70 70
28 21 23 22 36 38 40 44 45 47 46 47 48 48 52 51 54 57 59 60 61 62 63 64 64 64 63 63 64 65 65 65 65 65 65 65 66 67 68 69 69 70 69 69
26 24 20 19 27 33 32 41 44 47 49 47 43 45 47 53 57 58 58 59 60 61 61 63 64 64 64 64 64 65 66 66 66 65 66 66 66 66 67 67 68 69 69 69
23 26 25 22 25 27 34 39 47 49 50 47 48 52 55 56 57 57 59 58 58 59 60 61 64 65 65 65 65 65 65 65 64 64 64 65 65 65 66 66 67 67 68 67
28 26 24 22 25 34 35 34 34 38 45 52 50 56 57 57 56 56 57 57 57 57 58 59 62 63 64 63 64 64 63 63 63 63 63 64 64 63 64 65 66 67 67 65
27 25 21 21 17 21 34 38 40 41 39 51 53 56 56 54 40 52 55 55 56 57 57 58 59 61 63 62 63 62 61 61 61 61 61 62 63 64 64 63 63 62 60 59
24 26 23 26 27 34 39 40 41 34 36 47 51 51 47 46 50 55 54 54 55 55 56 56 57 58 60 60 60 59 59 58 59 60 60 61 62 62 63 61 60 58 57 56
20 21 24 27 27 25 43 41 33 38 45 47 49 52 54 55 55 54 53 53 54 54 55 55 56 56 57 58 58 58 57 57 57 58 58 59 59 61 61 59 58 57 56 55
22 23 24 26 26 40 45 44 45 46 46 50 52 57 56 55 55 53 51 53 53 53 53 54 54 54 54 55 56 55 55 56 55 54 51 50 50 52 56 59 58 57 57 55
33 37 34 36 42 42 43 44 45 47 45 48 55 57 56 55 54 52 52 51 52 52 52 52 53 53 52 53 54 54 55 55 53 49 46 45 45 44 44 47 51 56 57 55
31 32 32 35 41 43 42 44 44 44 53 54 58 57 56 54 53 52 51 50 50 49 50 50 51 50 50 52 53 53 53 52 50 47 44 42 40 39 38 38 42 45 43 47
36 30 28 24 34 34 32 39 45 44 54 57 56 55 55 54 53 52 51 50 48 47 47 49 48 48 48 49 50 51 51 51 50 48 45 42 39 38 38 36 32 34 35 34
Wind_Speed
3 3 8 14 6 8 12 6 13 1 8 10 4 11 20 9 16 15 22 25 24 26 20 20 20 18 16 13 16 18 15 11 11 5 7 7 8 7 7 7 3 2 1 3
1 7 14 4 6 2 3 9 10 12 9 3 5 6 7 2 1 8 17 22 22 18 21 22 20 18 18 17 19 19 19 14 10 7 4 4 9 6 6 5 4 3 4 2
6 7 3 3 2 4 6 6 9 4 14 2 9 2 4 5 6 6 8 14 20 24 23 22 23 22 19 18 20 21 18 19 13 11 8 6 7 6 4 3 5 7 7 5
6 9 12 5 8 8 4 16 5 13 8 4 4 9 10 11 17 15 15 13 17 22 20 23 23 23 22 20 15 15 17 17 11 10 9 8 8 8 6 7 3 5 6 4
5 5 6 8 14 9 2 6 9 13 4 3 6 3 4 12 18 18 15 19 19 24 27 26 26 26 22 18 19 18 16 15 14 12 11 12 9 8 6 6 7 6 6 7
14 10 8 10 11 21 15 13 12 7 3 3 5 2 5 13 26 16 16 15 16 16 21 20 18 17 19 16 15 15 18 16 13 14 12 12 12 10 7 8 10 8 6 4
7 7 7 9 14 11 20 11 5 3 2 4 5 2 10 13 14 26 25 21 19 14 18 21 22 21 19 20 18 16 18 18 16 15 15 13 12 12 13 11 12 11 8 5
3 2 5 7 23 20 16 10 10 2 3 2 5 6 4 10 12 18 25 30 25 19 16 22 22 23 23 22 20 19 19 19 16 15 15 12 11 12 12 11 13 11 11 12
2 4 5 6 11 18 5 10 16 3 5 1 4 7 8 9 5 14 25 28 32 31 27 25 22 21 23 23 24 24 22 20 19 18 14 14 12 12 12 12 10 11 11 11
4 3 3 0 7 3 16 16 14 7 5 3 2 2 7 9 1 1 12 25 29 32 34 27 25 23 21 22 23 23 22 24 21 19 17 16 15 14 13 9 11 13 13 11
4 4 4 4 4 14 6 6 6 11 5 4 7 7 9 7 10 7 5 7 12 17 22 29 26 25 26 21 22 22 22 21 20 19 17 15 15 14 13 12 13 13 11 9
1 4 2 1 5 1 13 5 6 5 5 3 2 4 7 8 15 14 7 11 13 12 18 18 18 21 21 22 20 23 21 20 19 18 17 18 14 14 13 13 13 11 12 11
6 4 3 2 3 9 9 6 3 7 4 5 5 3 3 5 8 4 2 6 14 15 14 19 16 20 22 21 18 19 17 18 16 17 17 16 16 15 15 15 13 11 11 11
5 3 9 7 2 4 3 8 1 7 4 5 4 4 4 8 7 8 10 10 5 12 21 24 21 19 21 21 20 18 16 18 18 17 17 16 15 14 15 15 13 10 12 13
4 4 8 7 9 4 14 11 11 7 3 6 8 7 7 11 10 13 11 12 9 1 5 5 16 19 18 14 14 14 16 16 15 13 13 6 2 1 8 12 13 13 10 13
5 2 2 7 14 17 17 18 16 11 12 12 12 10 4 7 13 16 13 12 16 16 17 17 13 13 8 7 5 8 9 9 8 9 8 3 3 4 4 4 9 10 12 12
3 2 3 4 3 12 10 7 14 10 10 4 7 1 3 11 14 11 9 9 10 12 14 16 16 13 13 9 4 7 7 8 8 11 11 12 7 8 5 6 5 4 7 7
3 3 3 1 6 4 2 1 3 17 10 15 13 6 7 9 10 13 13 12 13 10 10 11 15 17 19 14 11 9 4 5 9 10 9 12 8 6 7 7 4 5 6 5
3 6 4 2 5 2 2 4 3 1 3 3 8 8 3 7 6 10 12 13 12 10 10 9 10 11 19 19 12 9 9 9 10 7 5 3 6 5 10 6 5 4 2 3
15 12 6 2 3 4 3 6 9 3 2 6 4 8 9 2 2 2 6 9 11 10 10 10 12 13 15 10 15 11 11 12 13 9 6 10 12 9 6 5 7 6 10 12
4 5 6 4 3 3 5 8 6 5 6 3 6 6 3 4 0 8 9 8 6 6 7 8 9 11 10 11 13 13 11 11 9 9 10 13 9 8 7 7 9 11 14 14
2 3 2 3 3 5 3 3 4 3 1 6 7 4 6 11 11 9 8 7 7 6 6 6 8 10 9 8 12 14 12 8 7 9 12 11 10 9 10 11 9 12 14 15
0 3 4 5 3 4 4 1 1 3 4 8 10 7 13 12 8 9 10 8 6 7 7 6 8 10 11 10 8 11 6 10 10 12 10 9 10 9 10 13 12 11 9 11
0 3 3 4 5 5 4 2 1 5 5 6 7 13 13 13 13 9 9 11 8 6 6 7 9 10 8 8 12 12 10 9 11 12 11 10 12 10 9 9 8 8 10 10
4 8 7 2 5 4 10 11 2 3 8 9 11 10 13 17 14 13 11 11 11 11 9 8 10 10 10 7 8 8 10 13 13 12 10 10 12 12 11 10 8 6 5 2
7 8 9 9 13 9 6 4 12 6 5 10 15 10 8 10 16 13 14 13 13 12 10 10 11 13 13 11 11 8 6 8 11 11 9 10 9 9 11 8 12 14 10 13
Wind_Direction
143 166 210 225 123 144 145 179 188 257 62 308 316 164 173 164 149 165 171 172 177 187 179 170 171 172 170 177 174 178 174 161 149 148 164 157 184 194 207 224 191 194 165 115
353 230 232 158 142 212 245 257 185 134 196 219 36 221 312 142 93 166 181 180 177 163 164 170 171 175 178 187 185 178 173 168 163 147 166 139 160 186 208 218 176 175 174 192
205 233 88 169 228 225 296 257 199 162 160 65 133 105 276 113 268 233 173 175 167 165 166 170 173 181 184 192 192 181 178 170 166 159 124 96 102 102 145 172 181 210 213 199
265 266 257 216 240 191 251 239 148 137 141 178 234 191 223 197 206 214 176 158 175 166 171 171 173 179 192 197 184 194 180 174 164 142 155 168 166 166 180 189 187 192 202 210
240 283 217 195 214 170 3 51 123 124 105 123 203 208 204 172 204 206 196 174 178 176 172 178 179 181 187 185 184 193 184 187 166 162 168 169 174 180 186 187 194 193 209 211
260 247 243 230 143 154 119 94 73 65 72 300 172 149 253 207 217 190 189 170 176 180 177 179 178 171 168 174 180 181 185 193 185 169 172 182 187 189 188 210 214 208 222 219
308 238 218 168 106 117 136 139 48 20 6 253 104 171 248 208 208 191 184 178 188 188 174 175 172 173 171 172 179 181 190 200 196 189 180 193 201 202 205 213 212 210 207 218
293 138 218 159 152 170 171 158 128 160 205 243 62 243 253 229 262 226 182 172 173 182 189 187 184 179 180 177 181 185 192 205 201 205 197 191 197 215 220 210 214 224 215 216
226 287 298 115 148 154 172 143 112 294 261 209 217 277 283 227 314 161 169 165 179 183 185 188 187 186 181 179 183 191 192 203 205 207 213 208 203 210 225 235 227 218 224 234
238 276 324 358 135 215 173 158 124 207 289 253 211 228 277 275 133 283 194 190 188 183 181 190 178 183 186 187 187 188 195 199 204 204 210 215 213 213 219 225 225 218 226 230
169 197 320 4 356 172 151 182 86 153 212 218 156 239 345 335 153 145 162 177 199 198 195 190 185 184 180 184 184 188 194 195 200 202 210 215 223 223 220 222 234 224 228 231
42 152 106 176 330 185 82 97 135 153 195 222 197 224 351 98 113 117 162 198 185 186 193 200 191 184 183 182 184 187 192 194 199 195 201 213 220 224 222 228 237 230 222 216
346 25 64 78 58 30 55 346 92 123 105 193 175 213 77 116 95 79 173 175 186 177 177 189 184 186 190 187 185 183 186 193 189 190 200 207 220 228 230 230 232 232 229 231
109 50 87 106 61 326 30 358 355 143 140 170 208 208 95 38 59 36 17 357 272 201 177 182 183 191 193 189 185 182 174 175 179 183 198 206 218 228 237 233 229 225 221 227
65 66 86 52 78 63 49 47 53 103 188 182 174 130 25 18 9 360 353 351 44 103 22 192 182 182 181 183 165 163 168 173 168 181 181 148 74 259 257 255 243 234 228 225
17 93 159 85 116 82 52 26 38 53 70 71 99 81 38 48 59 40 45 53 54 62 81 74 78 70 67 53 84 107 137 159 175 181 157 132 42 46 350 274 267 250 238 234
44 60 46 119 96 98 72 13 60 58 52 109 90 323 76 61 42 26 30 52 66 80 84 90 98 97 86 81 112 127 145 160 152 135 141 125 113 88 70 41 15 355 307 277
130 95 70 321 103 178 179 270 97 86 61 96 104 88 74 87 76 45 31 37 35 31 44 106 113 118 122 105 114 107 112 128 155 138 142 143 133 97 90 76 54 20 20 21
103 126 84 113 73 107 51 4 326 329 110 174 138 134 151 122 91 59 37 45 41 25 21 28 53 120 118 108 131 117 113 98 99 109 114 156 118 61 44 28 43 51 252 176
63 79 116 99 110 175 209 294 335 89 126 178 167 162 155 264 331 100 60 46 46 28 22 34 25 44 75 92 116 129 118 105 103 97 85 57 62 73 74 88 111 96 109 109
16 25 98 102 109 249 243 300 329 190 209 187 160 177 197 247 254 134 112 89 74 55 31 28 70 75 75 99 103 100 86 97 100 104 98 91 95 97 106 111 103 111 106 102
134 148 150 103 111 239 26 292 224 191 60 194 183 181 117 118 118 110 97 94 97 87 59 45 77 82 70 73 111 121 121 115 106 107 111 109 110 111 118 112 107 113 117 114
186 187 169 183 204 250 289 240 96 140 116 172 187 179 146 141 147 139 132 129 112 102 88 70 87 84 63 59 78 103 101 113 106 99 87 84 76 85 104 124 129 124 116 123
63 158 117 148 216 226 256 296 200 206 231 222 191 162 162 157 156 145 137 130 122 111 106 115 111 102 89 94 109 116 118 110 105 101 95 88 86 76 70 85 93 122 134 134
190 159 151 232 263 293 269 248 116 286 295 187 150 164 167 156 161 159 155 150 148 144 143 148 139 133 124 117 103 107 118 124 116 108 101 91 92 87 76 63 63 85 69 73
186 176 182 222 207 185 218 215 166 161 169 162 156 154 160 171 166 163 163 165 159 156 152 153 153 149 149 143 129 112 102 124 126 120 119 118 112 108 105 97 86 53 56 71